This is the latest recevied weather packets stored in our database for station/object F8BPU-10. If no packets are shown the sender has not sent any weather packets the latest 10 day(s).
| Time | Temp. | Humidity | Pressure | Rain* | Wind** | Luminosity | Snow |
|---|---|---|---|---|---|---|---|
| 1777487668 | 26.11° C | 25% | 1021 hPa | - | - | - | - |
| 1777486768 | 26.11° C | 25% | 1021 hPa | - | - | - | - |
| 1777485868 | 26.11° C | 25% | 1020.9 hPa | - | - | - | - |
| 1777484968 | 26.11° C | 26% | 1020.8 hPa | - | - | - | - |
| 1777484068 | 26.11° C | 26% | 1020.8 hPa | - | - | - | - |
| 1777483168 | 26.11° C | 26% | 1020.9 hPa | - | - | - | - |
| 1777482268 | 26.11° C | 26% | 1020.8 hPa | - | - | - | - |
| 1777481368 | 26.11° C | 26% | 1020.8 hPa | - | - | - | - |
| 1777480467 | 26.11° C | 26% | 1020.8 hPa | - | - | - | - |
| 1777479567 | 26.11° C | 25% | 1020.9 hPa | - | - | - | - |
| 1777478667 | 26.11° C | 26% | 1020.8 hPa | - | - | - | - |
| 1777477767 | 26.11° C | 25% | 1020.8 hPa | - | - | - | - |
| 1777476867 | 25.56° C | 25% | 1020.8 hPa | - | - | - | - |
| 1777475966 | 25.56° C | 25% | 1020.7 hPa | - | - | - | - |
| 1777475066 | 25.56° C | 24% | 1021 hPa | - | - | - | - |
| 1777474166 | 24.44° C | 25% | 1021.1 hPa | - | - | - | - |
| 1777473266 | 25° C | 25% | 1021.1 hPa | - | - | - | - |
| 1777472366 | 26.11° C | 25% | 1021.1 hPa | - | - | - | - |
| 1777471466 | 25.56° C | 25% | 1021.2 hPa | - | - | - | - |
| 1777470565 | 25.56° C | 24% | 1021.3 hPa | - | - | - | - |
| 1777469665 | 25° C | 25% | 1021.4 hPa | - | - | - | - |
| 1777468765 | 25° C | 24% | 1021.4 hPa | - | - | - | - |
| 1777467865 | 25.56° C | 24% | 1021.4 hPa | - | - | - | - |
| 1777466965 | 27.22° C | 26% | 1021.5 hPa | - | - | - | - |
| 1777466065 | 26.67° C | 26% | 1021.5 hPa | - | - | - | - |
* Rain since midnight (hover to see other rain measurements)
** Current wind speed in m/s (hover to see current wind gust speed)